Location: Newark
(42.8481°N, 0.4872°E)
Time: 23:44:33
(UTC+00:00)

Vanguard 3 - Pass Details

Date: 31 October 2020
Orbit: 508 x 3262 km, 33.3° (Epoch: 29 November)

Event Time Altitude Azimuth Distance (km) Brightness Sun altitude
Rises 05:21:54 0° 242° (WSW) 6,036 - -13.2°
Exits shadow 05:22:43 - 241° (WSW) 5,868 11.0 -13.1°
Reaches altitude 10° 05:25:30 10° 239° (WSW) 5,317 10.8 -12.6°
Maximum altitude 05:42:14 59° 165° (SSE) 3,554 10.5 -9.5°
Drops below altitude 10° 06:01:08 10° 94° (E) 5,930 13.3 -6.2°
Sets 06:05:24 0° 91° (E) 6,739 13.8 -5.4°
